Wind_Speed
15 11 8 7 6 6 6 7 7 6 5 5 6 7 7 8 8 9 11 12 14 15 19 22 28 26 29 29 36 28 20 3 3 0 2 6 2 8 7 7 8 10 11 13 12
19 15 12 10 8 7 8 8 8 7 6 6 6 6 6 8 10 11 12 14 16 18 20 25 25 34 32 29 18 8 9 8 8 6 4 7 11 11 7 8 7 9 11 11 12
22 20 17 13 10 9 9 11 9 8 7 6 5 6 8 9 10 12 12 13 14 18 22 28 27 34 27 15 4 16 4 2 9 4 5 8 2 10 3 4 6 9 10 11 12
25 24 21 18 14 11 11 12 12 10 9 8 7 6 7 8 9 11 12 12 14 15 23 28 27 26 17 5 9 7 5 3 8 12 9 7 6 2 0 3 2 5 8 9 9
28 27 25 22 18 15 13 14 14 13 11 10 9 9 9 10 10 11 10 10 11 15 20 25 26 23 19 2 7 1 4 7 7 13 9 8 4 3 2 3 1 4 5 6 7
31 30 28 26 22 19 16 16 17 16 14 12 12 12 12 11 12 11 11 9 9 12 13 17 22 23 17 10 4 11 6 6 5 13 7 7 3 7 5 5 3 2 4 4 5
31 32 31 30 26 23 20 19 19 18 17 15 14 14 13 13 14 13 12 11 10 10 12 11 11 22 18 9 10 7 6 6 8 7 11 8 14 7 11 7 5 4 2 3 4
30 32 33 33 30 27 24 22 22 22 20 18 16 15 15 14 15 15 15 13 12 11 10 12 9 11 27 9 11 8 9 3 11 6 7 18 6 3 13 11 6 3 4 3 3
32 32 33 35 33 31 28 26 24 25 24 21 19 17 15 14 15 16 16 15 15 13 12 12 14 15 16 17 7 2 6 12 10 7 14 9 16 15 7 14 10 2 2 3 2
32 33 32 35 35 34 31 29 27 27 28 26 22 20 20 20 17 18 18 15 15 15 14 14 14 14 18 11 11 3 6 14 12 10 14 14 18 7 15 24 7 0 1 3 3
28 32 33 34 36 37 35 33 33 33 30 30 29 25 21 20 19 17 18 18 16 15 14 12 11 9 19 13 10 7 11 10 12 14 15 19 18 21 18 24 7 7 2 2 2
28 29 32 34 37 37 39 37 38 34 31 33 30 29 24 23 21 20 18 17 15 14 15 13 8 8 12 12 11 14 15 16 13 16 8 11 16 16 23 21 23 16 7 6 1
25 29 31 32 36 37 39 41 36 39 36 36 33 32 28 27 25 22 20 18 17 17 14 12 10 7 13 13 16 18 13 12 13 15 13 14 15 26 27 15 25 16 15 12 8
29 27 30 31 33 36 41 41 40 40 39 37 37 35 35 32 30 26 24 22 21 18 16 15 13 14 14 18 18 16 16 10 16 18 14 9 13 26 21 22 31 19 31 22 14
30 31 29 31 30 35 38 40 40 41 43 35 37 33 33 34 28 28 27 26 22 21 20 14 16 18 16 13 16 16 15 14 14 17 16 16 13 16 20 28 25 22 29 27 28
31 33 33 30 30 33 35 41 42 43 45 28 40 41 41 38 36 34 31 29 25 24 22 19 17 18 14 13 15 15 17 20 15 14 18 13 17 10 23 19 26 20 22 31 32
35 34 36 32 33 31 33 39 44 48 40 32 40 37 40 37 38 37 34 33 31 29 25 23 20 21 18 17 20 20 19 13 11 14 15 13 19 9 20 9 8 12 15 21 29
38 38 36 39 35 33 35 41 48 46 41 20 23 38 40 39 39 38 37 35 33 29 24 24 26 23 21 19 18 23 20 16 5 4 14 17 21 19 28 27 29 26 28 30 39
42 42 40 40 42 37 38 44 45 42 37 40 18 24 35 38 38 41 42 38 34 30 29 23 25 22 21 20 24 26 26 18 16 17 16 15 13 26 23 32 34 31 28 29 35
45 44 41 44 45 45 44 41 40 39 35 31 26 23 24 34 38 39 42 38 37 34 29 25 19 22 24 23 26 22 8 21 21 19 20 16 21 29 34 27 21 20 23 22 21
46 47 47 47 45 51 51 35 35 38 42 42 31 32 28 28 35 38 39 37 37 36 32 29 23 21 28 32 27 27 25 22 17 14 11 13 26 26 29 35 27 26 24 19 19
48 48 53 48 50 50 49 38 35 38 41 49 25 31 30 27 32 37 38 38 30 33 37 37 25 26 30 28 25 24 26 24 23 25 23 21 24 20 25 24 25 31 29 22 19
50 50 56 52 51 49 47 45 44 41 42 46 39 39 43 36 34 34 38 34 32 32 37 34 38 25 30 28 31 32 28 25 24 25 25 19 18 24 37 39 34 35 28 27 23
51 50 52 53 51 49 49 47 47 42 42 46 40 31 46 45 37 37 36 36 34 33 31 36 36 40 30 29 24 26 27 28 27 25 19 21 27 30 29 28 36 42 21 28 28
50 47 53 59 54 53 50 50 50 46 43 46 37 41 41 50 39 40 40 37 38 33 42 42 42 37 35 30 26 27 25 27 29 31 28 20 22 25 27 26 34 38 37 29 31
51 55 62 63 64 65 62 57 51 47 40 44 40 47 39 39 43 34 29 30 34 39 46 42 42 42 35 39 34 28 24 26 26 26 25 31 28 28 32 35 38 43 47 40 34
54 60 60 57 60 61 58 57 50 48 34 33 40 42 40 37 35 27 32 31 32 42 47 47 40 38 42 31 32 32 28 26 20 20 21 21 23 32 38 42 44 47 38 36 38
Wind_Direction
232 229 218 214 218 215 215 206 200 197 180 173 174 171 167 168 169 161 158 160 160 151 152 141 119 111 123 111 100 100 91 134 109 343 110 304 317 65 56 48 62 76 76 94 91
235 234 230 220 219 216 206 202 198 196 184 174 168 161 150 141 146 154 161 155 155 155 155 150 133 126 128 107 74 58 76 213 114 114 3 306 63 41 67 69 79 87 79 75 76
233 234 232 227 220 222 209 198 196 193 195 183 168 152 142 139 143 145 153 153 152 158 159 155 146 142 135 86 350 68 148 227 133 137 142 60 113 134 14 86 79 82 79 73 70
233 233 234 230 224 219 218 201 193 194 192 187 178 170 153 142 144 148 148 150 143 141 153 150 144 140 112 90 139 97 169 168 113 121 118 53 318 280 193 86 93 83 77 66 65
236 233 233 232 226 222 219 208 199 196 193 187 185 177 169 158 155 150 150 145 142 139 149 152 148 126 90 207 108 135 201 153 110 121 189 193 282 65 340 313 140 77 73 76 71
238 235 232 233 230 222 219 214 207 203 198 192 187 181 170 160 160 159 154 149 146 144 146 151 154 131 157 190 152 228 144 173 156 145 172 255 278 46 19 342 323 45 86 78 71
240 236 234 231 232 226 219 216 212 210 204 200 195 186 178 169 162 163 160 156 153 152 149 147 149 139 138 186 210 183 129 152 206 140 149 243 203 29 15 353 333 342 57 96 77
244 239 234 232 231 230 222 218 213 213 213 207 201 193 186 179 167 164 165 163 161 163 160 150 152 157 139 177 175 162 164 238 207 190 179 242 289 186 355 345 333 350 35 63 93
244 242 237 233 231 231 226 220 216 213 214 213 208 200 193 185 175 167 170 172 169 169 163 158 159 156 150 145 135 97 171 204 213 218 245 290 290 262 336 339 308 352 46 56 69
246 244 240 234 230 229 229 224 219 215 214 214 212 205 196 193 185 175 172 175 176 174 172 171 165 163 139 169 161 138 281 224 229 239 232 279 295 252 332 325 283 271 46 43 46
250 244 242 238 230 228 227 226 222 218 213 214 212 210 206 198 193 186 182 182 184 179 178 184 180 161 134 162 144 233 232 193 239 261 212 244 287 304 314 309 339 3 45 63 53
252 249 241 238 234 225 226 227 227 228 219 219 212 214 209 204 203 196 195 193 188 187 190 191 172 174 164 197 213 205 186 197 222 243 209 250 285 277 303 305 310 265 348 330 172
251 249 249 237 235 230 223 225 226 226 221 221 216 215 208 209 209 206 202 201 197 202 199 196 176 207 209 205 218 223 198 201 200 230 237 195 227 260 280 294 266 321 299 313 317
250 247 249 248 236 231 228 222 223 226 225 222 219 217 211 212 214 211 209 207 211 204 206 206 181 252 212 215 214 211 199 191 237 232 233 230 223 255 272 279 294 303 320 314 315
251 245 244 248 242 235 230 229 223 223 225 227 228 223 219 220 218 219 218 220 215 210 213 207 201 215 214 207 206 176 232 221 206 213 224 249 242 254 273 274 286 288 310 315 310
249 246 242 239 243 241 230 226 225 222 220 223 226 219 220 217 217 218 220 222 219 216 217 208 219 223 210 207 198 166 189 224 220 226 239 240 226 256 256 256 262 228 270 306 306
246 243 240 235 238 243 240 230 224 223 211 211 231 224 224 222 225 226 220 220 218 218 217 212 204 230 215 207 200 198 213 216 235 228 242 222 232 219 235 268 240 291 270 280 286
246 242 238 236 235 233 239 234 225 220 217 190 239 232 226 223 222 229 226 223 220 222 227 221 217 220 220 210 206 211 213 205 197 251 271 223 209 214 243 239 243 231 255 271 269
243 241 236 235 233 232 233 237 227 221 213 212 207 233 230 223 224 228 232 225 226 224 218 223 221 243 233 216 199 223 218 188 229 254 254 237 240 237 261 258 254 253 253 256 256
239 239 235 233 234 233 235 242 233 222 209 191 216 217 231 224 219 219 231 229 225 223 218 202 237 221 251 222 208 214 242 212 215 234 226 244 269 271 279 284 269 275 271 268 267
236 236 234 233 230 233 233 232 234 226 209 187 204 217 223 220 221 221 225 233 227 226 217 200 199 231 228 241 221 212 214 225 215 226 224 244 238 225 249 269 281 282 276 276 270
235 231 235 229 231 233 233 232 221 220 218 207 228 215 206 213 224 225 223 228 229 227 222 206 207 209 222 225 222 213 228 224 214 220 220 228 284 266 276 267 274 282 285 278 273
233 231 234 230 230 231 232 229 227 216 217 217 220 219 192 194 208 222 221 220 225 223 214 220 206 217 202 231 236 220 217 226 232 210 211 236 251 254 265 270 279 283 288 282 284
232 227 229 228 229 230 230 226 227 225 216 214 223 232 208 191 195 201 212 222 222 222 226 209 221 214 217 213 236 248 229 215 227 242 239 226 253 273 292 289 284 283 288 279 278
232 224 222 224 222 226 228 229 225 218 220 216 215 224 218 202 195 201 199 209 224 220 232 212 219 219 201 208 227 238 238 229 216 223 218 228 239 259 276 273 274 282 288 279 282
227 224 223 221 221 215 216 219 219 223 219 221 219 225 220 219 209 214 207 201 215 220 227 225 217 216 218 204 201 225 244 248 231 229 235 223 226 256 269 273 277 277 278 289 279
227 224 222 222 226 222 219 223 217 217 211 212 230 224 210 218 215 199 211 213 197 227 227 228 218 220 222 219 217 223 212 227 237 241 233 243 256 239 255 259 260 265 287 285 283
Height
5899 5901 5902 5903 5903 5904 5904 5905 5906 5907 5907 5908 5908 5908 5909 5910 5912 5913 5914 5917 5918 5920 5923 5926 5930 5932 5933 5935 5931 5939 5944 5950 5947 5941 5938 5933 5931 5929 5928 5926 5925 5923 5922 5923 5921
5897 5899 5901 5902 5902 5903 5904 5905 5906 5907 5908 5908 5909 5909 5910 5911 5913 5914 5915 5917 5918 5920 5923 5925 5929 5933 5935 5934 5936 5940 5946 5946 5946 5941 5938 5936 5933 5931 5931 5930 5929 5927 5926 5924 5923
5895 5897 5899 5901 5902 5902 5903 5904 5905 5907 5908 5909 5910 5910 5911 5912 5914 5915 5916 5918 5919 5920 5922 5924 5928 5929 5933 5933 5942 5944 5947 5944 5943 5944 5942 5938 5936 5933 5932 5932 5931 5930 5929 5928 5927
5892 5895 5897 5899 5900 5901 5902 5903 5905 5906 5908 5909 5910 5911 5912 5913 5916 5915 5917 5919 5920 5921 5923 5926 5928 5930 5932 5940 5942 5948 5945 5946 5943 5944 5944 5940 5935 5935 5933 5934 5933 5932 5931 5931 5930
5889 5891 5893 5896 5898 5900 5901 5902 5904 5906 5907 5909 5910 5911 5912 5914 5915 5916 5918 5920 5921 5923 5924 5926 5928 5930 5934 5946 5943 5948 5944 5945 5943 5944 5943 5942 5939 5939 5937 5936 5935 5934 5933 5933 5933
5884 5887 5890 5893 5895 5898 5900 5901 5903 5905 5906 5908 5910 5911 5913 5915 5916 5917 5918 5920 5922 5924 5925 5927 5928 5927 5934 5944 5944 5946 5945 5946 5943 5945 5945 5941 5940 5939 5938 5937 5936 5935 5935 5934 5933
5879 5882 5885 5888 5892 5894 5897 5898 5901 5903 5905 5907 5909 5911 5913 5916 5916 5918 5919 5920 5922 5924 5925 5927 5928 5927 5934 5941 5941 5942 5944 5945 5945 5943 5945 5944 5939 5940 5939 5939 5938 5936 5935 5935 5935
5874 5877 5880 5883 5886 5890 5894 5896 5898 5900 5903 5905 5907 5909 5912 5914 5916 5918 5919 5921 5923 5924 5926 5927 5928 5929 5929 5940 5940 5942 5946 5948 5947 5945 5946 5941 5927 5937 5939 5939 5939 5937 5936 5936 5936
5868 5871 5874 5878 5882 5885 5889 5893 5895 5897 5900 5903 5906 5908 5911 5913 5915 5917 5919 5921 5922 5924 5926 5928 5929 5930 5930 5934 5940 5943 5947 5951 5948 5947 5945 5941 5939 5938 5939 5940 5940 5937 5936 5936 5937
5862 5865 5868 5871 5876 5880 5884 5888 5890 5893 5896 5900 5903 5908 5908 5911 5914 5916 5918 5920 5922 5924 5926 5927 5929 5930 5929 5934 5941 5948 5951 5951 5949 5947 5947 5943 5940 5927 5937 5937 5940 5937 5936 5937 5937
5856 5859 5862 5865 5869 5873 5878 5882 5886 5888 5891 5895 5898 5902 5907 5910 5912 5914 5916 5918 5921 5923 5925 5926 5928 5929 5929 5934 5940 5948 5953 5951 5950 5946 5949 5944 5942 5939 5941 5938 5940 5939 5938 5937 5937
5851 5852 5855 5859 5862 5866 5871 5874 5878 5885 5888 5890 5895 5898 5903 5906 5909 5912 5915 5917 5919 5922 5923 5925 5926 5927 5929 5935 5940 5943 5947 5951 5951 5947 5946 5945 5942 5939 5941 5940 5936 5934 5937 5938 5937
5844 5846 5849 5851 5854 5859 5863 5867 5874 5876 5881 5884 5890 5894 5899 5903 5906 5909 5912 5915 5917 5919 5921 5923 5926 5926 5929 5933 5938 5940 5943 5947 5949 5947 5946 5948 5950 5943 5941 5943 5935 5924 5934 5937 5937
5839 5840 5842 5845 5849 5851 5854 5860 5865 5870 5875 5880 5883 5889 5892 5897 5901 5905 5908 5912 5913 5916 5918 5920 5923 5927 5928 5930 5932 5937 5940 5944 5945 5946 5946 5945 5949 5943 5941 5939 5933 5933 5928 5932 5933
5832 5833 5835 5839 5842 5843 5850 5853 5858 5862 5866 5879 5880 5886 5890 5893 5900 5901 5904 5906 5909 5913 5915 5919 5919 5923 5925 5927 5929 5934 5938 5940 5942 5944 5944 5945 5946 5946 5943 5938 5937 5935 5929 5932 5928
5824 5827 5828 5832 5835 5835 5840 5843 5849 5854 5859 5868 5868 5875 5880 5886 5890 5894 5898 5902 5907 5908 5910 5914 5917 5920 5922 5924 5927 5932 5936 5936 5937 5940 5941 5943 5943 5945 5941 5939 5935 5935 5932 5930 5928
5815 5818 5820 5825 5825 5831 5833 5835 5840 5842 5859 5861 5861 5870 5876 5882 5885 5887 5893 5895 5899 5903 5906 5910 5913 5916 5918 5920 5924 5928 5930 5933 5934 5934 5935 5939 5943 5945 5933 5934 5934 5933 5932 5931 5927
5804 5808 5812 5815 5818 5819 5822 5825 5826 5839 5849 5859 5861 5861 5867 5875 5878 5882 5885 5889 5894 5899 5903 5906 5908 5911 5914 5916 5922 5923 5927 5930 5931 5935 5936 5935 5938 5941 5934 5932 5932 5934 5931 5934 5924
5793 5795 5802 5805 5808 5810 5811 5812 5824 5835 5846 5853 5859 5858 5860 5865 5871 5875 5877 5884 5890 5894 5898 5902 5904 5909 5910 5913 5919 5920 5919 5926 5931 5933 5933 5933 5932 5929 5930 5929 5930 5930 5930 5929 5927
5779 5783 5792 5792 5797 5801 5801 5809 5818 5827 5836 5842 5850 5855 5858 5858 5863 5866 5870 5878 5882 5888 5893 5898 5904 5906 5906 5908 5911 5915 5919 5921 5923 5927 5928 5933 5929 5925 5920 5923 5925 5924 5923 5923 5923
5766 5771 5775 5781 5785 5787 5789 5803 5810 5817 5825 5825 5834 5844 5850 5856 5858 5862 5866 5871 5875 5881 5887 5892 5899 5906 5905 5900 5905 5910 5914 5917 5922 5923 5926 5928 5924 5918 5917 5916 5919 5919 5918 5919 5919
5752 5758 5759 5768 5771 5777 5783 5797 5799 5802 5813 5816 5823 5830 5838 5848 5854 5856 5861 5864 5869 5873 5876 5884 5891 5895 5900 5900 5902 5907 5910 5911 5914 5917 5918 5919 5910 5910 5912 5915 5916 5913 5914 5915 5915
5736 5742 5743 5754 5759 5766 5774 5782 5786 5790 5798 5807 5811 5816 5825 5831 5840 5849 5855 5864 5866 5868 5870 5877 5880 5888 5893 5898 5895 5896 5901 5905 5907 5909 5912 5917 5917 5906 5904 5907 5907 5906 5910 5909 5909
5720 5728 5732 5740 5749 5755 5761 5768 5776 5783 5787 5795 5803 5810 5817 5819 5826 5835 5847 5855 5859 5862 5864 5871 5874 5876 5885 5891 5893 5891 5893 5898 5904 5905 5908 5911 5908 5904 5902 5902 5898 5896 5904 5902 5903
5702 5712 5714 5718 5732 5742 5749 5756 5763 5769 5778 5784 5791 5796 5804 5812 5819 5825 5834 5845 5850 5855 5855 5860 5863 5870 5876 5883 5890 5888 5889 5890 5895 5898 5901 5908 5907 5901 5893 5895 5894 5891 5894 5898 5897
5683 5688 5692 5702 5710 5715 5726 5736 5748 5761 5768 5774 5779 5787 5795 5802 5809 5818 5827 5834 5841 5844 5846 5851 5855 5861 5865 5873 5877 5884 5886 5885 5887 5891 5894 5896 5897 5891 5889 5887 5888 5888 5887 5890 5889
5661 5670 5680 5695 5699 5709 5721 5729 5739 5749 5757 5767 5772 5777 5783 5793 5800 5810 5818 5824 5833 5835 5837 5841 5848 5851 5855 5863 5870 5873 5879 5883 5885 5886 5890 5892 5893 5887 5880 5878 5879 5879 5881 5882 5880